星链-2298 (STARLINK-2298 )

导读 | 豆包AI

STARLINK-2298是美国SpaceX公司星链星座的成员卫星,于北京时间2021年3月24日发射入轨,属于星链一期LEO-2星座,运行在高度约540千米、倾角53.2度的近地轨道。作为星链低轨互联网星座的组网卫星,它为全球尤其是基础设施匮乏地区提供高速低延迟的宽带互联网服务,助力星座实现全球覆盖的通信网络布局。

基本信息
目录编号:
48022
目录名称:
STARLINK-2298
国际标识:
2021-024AX
轨道中心:
EARTH
卫星名称:
星链-2298
卫星全名:
星链-2298 (STARLINK-2298 )
卫星状态:
在轨 (已飞行1816 天)
发射日期:
2021-03-24 UTC
国别 :
美国 (US)
星等 :
--
轨道信息
数据来源 国际轨道数据
星历时间: 2026-03-14T08:00:02+0800
15小时前
查看轨道信息
半长轴: 6885.081km
偏心率: 0.0001743
轨道倾角: 53.110°
近地点辐角 69.068°
升交点赤经 311.976°
平近点角 356.166°
近地点: 505.743km
远地点: 508.145km
周期: 94.760分钟
每日圈数: 15.196347
详细信息
固有亮度:
5
最大亮度:
2.5
卫星平台:
Starlink V1.0
覆盖范围:
全球
运营商:
太空探索技术公司
运营商所在国:
美国
制造商(研发单位):
太空探索技术公司
制造商所在国:
美国
使用方式:
暂无
卫星简介
星链(Starlink)计划是由太空探索技术公司(SpaceX)提出的一个巨型低轨卫星互联网星座项目,计划在2019年至2024年间在太空搭建由约1.2万颗卫星组成的“星链”网络,其中1584颗将部署在地球上空550千米处的近地轨道,并从2020年开始工作。该卫星仍在工作。
2D轨道图
3D轨道图
轨道高度分析图
轨道倾角分析图
轨道综合分析图
查看轨道综合分析图